Location: Byszew
(52.1813°N, 19.2693°E)
Time: 13:21:32
(UTC+00:00)

NOAA 18 - Pass Details

Date: 04 July 2022
Orbit: 839 x 860 km, 98.9° (Epoch: 13 August)

Event Time Altitude Azimuth Distance (km) Brightness Sun altitude
Exits shadow 22:02:04 - 225° (SW) 3,266 7.9 -14.4°
Reaches altitude 10° 22:05:25 10° 250° (WSW) 2,490 7.5 -14.4°
Maximum altitude 22:07:52 13° 276° (W) 2,289 7.6 -14.5°
Drops below altitude 10° 22:10:21 10° 303° (WNW) 2,503 8.3 -14.6°
Sets 22:14:16 0° 331° (NNW) 3,449 9.7 -14.7°
